FW0183 Weather Reports


Display with metric or nautical units.
time (UTC)temp
F
wind
direction
speed
MPH
gust
MPH
rain 1hr
in
rain 24hr
in
rain mn
in
humidity
%
barometer
mb
20260906094557 60 115 2.0 7.0 0.05 0.52 0.14 97 1013.1
20260906093056 60 119 4.0 6.0 0.14 0.52 0.14 97 1012.8
20260906091541 60 155 0.0 5.0 0.14 0.52 0.14 97 1013.0
20260906090034 60 153 1.0 8.0 0.14 0.52 0.14 97 1012.8
20260906084526 60 253 3.0 9.0 0.09 0.48 0.09 97 1013.1
20260906083023 60 136 0.0 0.0 0.00 0.39 0.00 97 1012.8
20260906081600 60 136 0.0 2.0 0.00 0.39 0.00 97 1013.0
20260906080058 60 136 2.0 4.0 0.00 0.39 0.00 97 1012.9
20260906074548 59 150 0.0 0.0 0.00 0.39 0.39 97 1013.1
20260906073039 59 150 0.0 0.0 0.00 0.39 0.39 97 1013.1
20260906071533 59 151 0.0 5.0 0.00 0.39 0.39 97 1013.5
20260906070028 59 151 3.0 8.0 0.00 0.39 0.39 96 1013.2
20260906064534 59 150 2.0 5.0 0.00 0.39 0.39 96 1013.2
20260906063024 60 49 2.0 4.0 0.00 0.39 0.39 96 1013.4
20260906061506 60 49 0.0 4.0 0.00 0.39 0.39 97 1013.4
20260906060104 60 45 0.0 0.0 0.01 0.39 0.39 97 1013.5
20260906054554 59 47 0.0 0.0 0.01 0.39 0.39 96 1013.7
20260906053047 59 45 0.0 0.0 0.01 0.39 0.39 95 1013.9
20260906051640 61 46 0.0 0.0 0.01 0.39 0.39 96 1014.0
20260906050034 61 45 0.0 0.0 0.00 0.38 0.38 96 1014.0
20260906044533 61 45 0.0 1.0 0.00 0.38 0.38 96 1013.9
20260906043028 60 45 0.0 1.0 0.00 0.38 0.38 96 1013.9
20260906041512 60 48 0.0 2.0 0.00 0.38 0.38 96 1013.4
20260906040002 60 44 0.0 4.0 0.00 0.38 0.38 96 1013.7
20260906034545 61 46 0.0 2.0 0.00 0.38 0.38 95 1013.7
20260906033038 61 46 2.0 3.0 0.00 0.38 0.38 95 1014.2
20260906031532 61 46 0.0 4.0 0.00 0.38 0.38 95 1014.2
20260906030028 62 46 0.0 0.0 0.00 0.38 0.38 93 1014.3
20260906024521 63 46 0.0 1.0 0.00 0.38 0.38 94 1014.3
20260906023016 63 46 0.0 3.0 0.00 0.38 0.38 94 1014.5
20260906021513 64 45 1.0 3.0 0.00 0.38 0.38 94 1014.5
20260906020002 64 46 0.0 3.0 0.00 0.38 0.38 92 1014.5
20260906014646 65 46 0.0 0.0 0.00 0.38 0.38 94 1014.2
20260906013038 65 46 0.0 3.0 0.00 0.38 0.38 92 1014.2
20260906011531 65 46 0.0 6.0 0.00 0.38 0.38 92 1013.9
20260906010028 66 43 0.0 0.0 0.01 0.38 0.38 91 1013.6
20260906004528 67 42 0.0 2.0 0.02 0.38 0.38 90 1013.5
20260906003127 68 42 0.0 0.0 0.02 0.38 0.38 88 1013.4
20260906001621 68 42 0.0 3.0 0.02 0.38 0.38 87 1013.2
20260906000117 69 44 4.0 11.0 0.01 0.37 0.37 85 1013.4
20260905234551 71 297 1.0 4.0 0.00 0.36 0.36 78 1013.2
20260905233104 71 360 0.0 5.0 0.00 0.36 0.36 77 1013.0
20260905231528 72 277 2.0 4.0 0.00 0.36 0.36 76 1013.0
20260905230027 73 360 1.0 6.0 0.00 0.36 0.36 74 1013.2
20260905224527 75 360 2.0 6.0 0.00 0.36 0.36 70 1013.2
20260905223125 77 261 5.0 10.0 0.00 0.36 0.36 67 1013.3
20260905221531 78 360 2.0 5.0 0.00 0.36 0.36 66 1013.3
20260905220012 78 293 0.0 5.0 0.00 0.36 0.36 65 1013.1
20260905214505 79 314 2.0 5.0 0.00 0.89 0.36 63 1013.0
20260905213059 78 265 1.0 7.0 0.00 0.89 0.36 65 1012.9
20260905211542 78 335 1.0 6.0 0.00 0.89 0.36 64 1013.0
20260905210036 79 360 0.0 3.0 0.00 0.89 0.36 62 1012.7
20260905204529 78 82 0.0 5.0 0.00 0.89 0.36 63 1012.7
20260905203027 77 360 0.0 12.0 0.00 0.89 0.36 67 1012.6
20260905201527 77 214 2.0 8.0 0.00 0.89 0.36 68 1012.6
20260905200017 77 338 2.0 6.0 0.00 0.89 0.36 70 1012.6
20260905194611 75 340 4.0 11.0 0.00 0.89 0.36 73 1012.7
20260905193009 74 348 3.0 9.0 0.00 0.89 0.36 72 1012.8
20260905191701 75 36 5.0 12.0 0.00 0.89 0.36 68 1013.0
20260905190057 75 310 4.0 15.0 0.00 0.89 0.36 64 1013.1
20260905184532 75 320 4.0 16.0 0.00 0.89 0.36 66 1013.3
20260905183023 72 153 0.0 3.0 0.00 0.89 0.36 79 1013.6
20260905181516 70 151 0.0 1.0 0.00 0.89 0.36 82 1013.8
20260905180010 68 151 1.0 4.0 0.00 0.89 0.36 85 1014.1
20260905174505 67 157 0.0 5.0 0.00 0.89 0.36 86 1014.0
20260905173154 66 155 0.0 2.0 0.02 0.89 0.36 89 1014.2
20260905171547 65 157 0.0 5.0 0.06 0.89 0.36 91 1014.5
20260905170025 64 76 0.0 1.0 0.35 0.89 0.36 93 1015.0
20260905164518 64 91 4.0 12.0 0.35 0.89 0.36 92 1015.5
20260905163012 64 279 5.0 13.0 0.32 0.86 0.33 91 1016.2
20260905161504 65 184 10.0 26.0 0.28 0.82 0.28 86 1016.7
20260905160042 69 336 0.0 4.0 0.00 0.54 0.01 84 1016.3
20260905154537 70 295 2.0 9.0 0.00 0.54 0.01 83 1016.1
20260905153029 71 78 6.0 12.0 0.00 0.54 0.01 82 1015.8
20260905151527 76 61 4.0 10.0 0.00 0.54 0.01 76 1015.5
20260905150025 78 355 3.0 14.0 0.00 0.54 0.01 74 1014.9
20260905144516 78 255 6.0 13.0 0.00 0.54 0.01 75 1014.8
20260905143006 76 360 5.0 14.0 0.00 0.54 0.01 78 1014.3
20260905141619 75 291 3.0 11.0 0.00 0.54 0.01 82 1014.7
20260905140034 73 265 3.0 12.0 0.00 0.54 0.01 87 1014.9
20260905134527 70 284 4.0 9.0 0.00 0.54 0.01 98 1015.0
20260905133019 68 74 0.0 0.0 0.00 0.54 0.01 98 1015.2
20260905131513 67 71 0.0 0.0 0.00 0.54 0.01 98 1015.1
20260905124551 63 71 0.0 0.0 0.00 0.54 0.01 98 1015.6
20260905123042 60 71 0.0 0.0 0.00 0.54 0.01 98 1015.6
20260905121531 59 72 0.0 3.0 0.00 0.54 0.01 98 1015.5
20260905120006 58 73 1.0 4.0 0.00 0.54 0.01 97 1015.4
20260905114557 58 69 1.0 3.0 0.00 0.54 0.01 97 1015.5
20260905113100 57 69 0.0 2.0 0.00 0.54 0.01 97 1015.4
20260905111553 57 68 1.0 3.0 0.00 0.54 0.01 97 1015.2
20260905110038 56 68 0.0 2.0 0.00 0.54 0.01 97 1015.1
20260905104531 56 69 0.0 0.0 0.00 0.54 0.01 97 1015.0
20260905103031 57 69 0.0 0.0 0.00 0.54 0.01 97 1015.0
20260905101531 57 69 0.0 0.0 0.00 0.54 0.01 97 1014.9
20260905100002 57 69 0.0 0.0 0.00 0.54 0.01 97 1014.9